Weather History for Pittsburg, KS

Change the Weather History Date:

Tuesday, September 17, 2013

  Actual Average (KJLN) Record (KJLN)
Temperature  
Mean Temperature 70 °F 70 °F  
Max Temperature 76 °F 82 °F 95 °F (1953)
Min Temperature 65 °F 59 °F 41 °F (1981)
Degree Days  
Heating Degree Days 0 1  
Month to date heating degree days 6  
Since 1 July heating degree days 7  
Cooling Degree Days 6 6  
Month to date cooling degree days 153  
Year to date cooling degree days 1580  
Growing Degree Days 20 (Base 50)    
Moisture  
Dew Point 73 °F    
Average Humidity 100    
Maximum Humidity 100    
Minimum Humidity 99    
Precipitation  
Precipitation 0.16 in 0.18 in 3.02 in (2011)
Month to date precipitation 2.82  
Year to date precipitation 33.79  
Sea Level Pressure  
Sea Level Pressure 30.09 in    
Wind  
Wind Speed 5 mph (SE)    
Max Wind Speed 9 mph    
Max Gust Speed -    
Visibility 5 miles    
Events Thunderstorm    
T = Trace of Precipitation, MM = Missing Value Source: NWS Daily Summary

Daily Weather History Graph

Daily Weather History Graph

Search for Another Location

Airport:

Trip Planner

Search our weather history database for the weather conditions in past years. The results will help you decide how hot, cold, wet, or windy it might be!

Date:

Astronomy

Sep. 17, 2013 Rise Set
Actual Time 7:02 AM CDT 7:23 PM CDT
Civil Twilight 6:36 AM CDT 7:49 PM CDT
Nautical Twilight 6:05 AM CDT 8:19 PM CDT
Astronomical Twilight 5:34 AM CDT 8:51 PM CDT
Moon 6:09 PM CDT 5:00 AM CDT
Length of Visible Light 13h 12m
Length of Day
12h 20m
Waxing Gibbous, 96% of the Moon is Illuminated
Sep 17
Waxing Gibbous
Sep 19
Full
Sep 26
Last Quarter
Oct 4
New
Oct 11
First Quarter

Hourly Weather History & Observations

Time (CDT) Temp. Dew Point Humidity Pressure Visibility Wind Dir Wind Speed Gust Speed Precip Events Conditions
12:15 AM 65.8 °F - N/A% 30.17 in 2.5 mi East 4.6 mph - N/A   Overcast
12:35 AM 65.8 °F - N/A% 30.17 in 2.5 mi East 5.8 mph - N/A   Overcast
12:55 AM 65.8 °F - N/A% 30.17 in 3.0 mi East 3.5 mph - 0.01 in   Overcast
1:15 AM 65.8 °F - N/A% 30.17 in 3.0 mi ESE 3.5 mph - N/A   Overcast
1:35 AM 65.8 °F - N/A% 30.18 in 3.0 mi East 3.5 mph - N/A   Overcast
1:55 AM 65.8 °F - N/A% 30.17 in 3.0 mi East 3.5 mph - 0.01 in   Overcast
2:15 AM 65.8 °F - N/A% 30.16 in 4.0 mi Calm Calm - N/A Thunderstorm Overcast
2:35 AM 65.8 °F - N/A% 30.16 in 3.0 mi NE 5.8 mph - N/A   Overcast
2:55 AM 65.8 °F - N/A% 30.16 in 1.5 mi ENE 3.5 mph - 0.01 in   Overcast
3:15 AM 65.8 °F - N/A% 30.15 in 3.0 mi East 6.9 mph - 0.01 in Thunderstorm Thunderstorm
3:35 AM 65.8 °F - N/A% 30.13 in 4.0 mi ESE 9.2 mph - 0.01 in Thunderstorm Scattered Clouds
3:55 AM 65.8 °F - N/A% 30.12 in 4.0 mi SE 6.9 mph - 0.02 in   Scattered Clouds
4:15 AM 65.8 °F - N/A% 30.12 in 5.0 mi ESE 5.8 mph - N/A   Scattered Clouds
4:35 AM 65.8 °F - N/A% 30.12 in 4.0 mi East 3.5 mph - 0.01 in Thunderstorm Clear
4:55 AM 65.8 °F - N/A% 30.12 in 4.0 mi East 3.5 mph - 0.01 in   Scattered Clouds
5:15 AM 65.8 °F - N/A% 30.12 in 4.0 mi Calm Calm - 0.01 in   Scattered Clouds
5:35 AM 65.8 °F - N/A% 30.11 in 4.0 mi Calm Calm - 0.01 in   Scattered Clouds
5:55 AM 65.8 °F - N/A% 30.11 in 4.0 mi SE 3.5 mph - 0.01 in   Scattered Clouds
6:15 AM 66.6 °F - N/A% 30.12 in 4.0 mi ESE 3.5 mph - 0.01 in   Scattered Clouds
6:35 AM 68.2 °F - N/A% 30.12 in 5.0 mi ESE 3.5 mph - 0.01 in   Scattered Clouds
6:55 AM 68.4 °F - N/A% 30.12 in 5.0 mi SE 3.5 mph - 0.01 in   Scattered Clouds
7:15 AM 68.4 °F - N/A% 30.13 in 4.0 mi SE 5.8 mph - 0.01 in   Scattered Clouds
7:35 AM 68.4 °F - N/A% 30.14 in 4.0 mi SE 3.5 mph - 0.01 in   Mostly Cloudy
7:55 AM 68.4 °F - N/A% 30.15 in 3.0 mi SE 4.6 mph - 0.01 in   Overcast
8:15 AM 68.5 °F - N/A% 30.15 in 3.0 mi SSE 5.8 mph - N/A   Overcast
8:35 AM 70.3 °F - N/A% 30.15 in 3.0 mi SSE 5.8 mph - 0.01 in Thunderstorm Overcast
8:55 AM 70.9 °F - N/A% 30.15 in 3.0 mi SSE 8.1 mph - 0.01 in   Overcast
9:15 AM 70.9 °F - N/A% 30.15 in 2.5 mi SE 6.9 mph - N/A   Overcast
9:35 AM 70.9 °F - N/A% 30.15 in 3.0 mi SE 6.9 mph - N/A   Unknown
9:55 AM 70.9 °F - N/A% 30.15 in 3.0 mi SSE 4.6 mph - N/A   Unknown
10:15 AM 70.9 °F - N/A% 30.15 in 3.0 mi SSE 4.6 mph - 0.01 in   Overcast
10:35 AM 70.9 °F - N/A% 30.15 in 4.0 mi SSE 5.8 mph - 0.01 in   Scattered Clouds
10:55 AM 70.9 °F - N/A% 30.15 in 4.0 mi SSE 6.9 mph - 0.01 in   Clear
11:15 AM 70.9 °F - N/A% 30.15 in 5.0 mi SSE 4.6 mph - N/A   Clear
11:35 AM 71.1 °F 71.2 °F 100% 30.15 in 7.0 mi South 4.6 mph - N/A   Clear
11:55 AM 72.0 °F 72.1 °F 100% 30.15 in 7.0 mi South 6.9 mph - 0.01 in Thunderstorm Thunderstorm
12:15 PM 72.0 °F 72.1 °F 100% 30.15 in 5.0 mi SSW 6.9 mph - N/A   Mostly Cloudy
12:35 PM 70.9 °F 71.1 °F 100% 30.14 in 4.0 mi SSW 3.5 mph - N/A   Overcast
12:55 PM 70.9 °F 71.1 °F 100% 30.13 in 7.0 mi South 3.5 mph - N/A   Overcast
1:15 PM 70.9 °F 71.1 °F 100% 30.12 in 5.0 mi South 3.5 mph - N/A   Overcast
1:35 PM 70.9 °F - N/A% 30.11 in 4.0 mi ESE 3.5 mph - 0.01 in   Overcast
1:55 PM 70.9 °F - N/A% 30.10 in 5.0 mi SSE 5.8 mph - 0.01 in   Scattered Clouds
2:15 PM 72.5 °F 72.9 °F 100% 30.09 in 7.0 mi SSE 4.6 mph - N/A   Clear
2:35 PM 73.4 °F 73.6 °F 100% 30.09 in 7.0 mi SE 4.6 mph - N/A   Clear
2:55 PM 73.4 °F 73.6 °F 100% 30.09 in 7.0 mi South 4.6 mph - N/A   Clear
3:15 PM 73.2 °F 73.4 °F 100% 30.09 in 5.0 mi South 6.9 mph - 0.01 in   Scattered Clouds
3:35 PM 73.4 °F 73.8 °F 100% 30.08 in 5.0 mi SSE 5.8 mph - 0.01 in   Scattered Clouds
3:55 PM 73.2 °F 73.4 °F 100% 30.06 in 5.0 mi ESE 5.8 mph - 0.01 in   Scattered Clouds
4:15 PM 73.4 °F 73.6 °F 100% 30.05 in 5.0 mi SE 5.8 mph - N/A   Scattered Clouds
4:35 PM 73.4 °F 73.6 °F 100% 30.04 in 7.0 mi SSE 5.8 mph - N/A   Clear
4:55 PM 73.6 °F 73.8 °F 100% 30.04 in 10.0 mi SSE 6.9 mph - N/A   Clear
5:15 PM 73.8 °F 73.9 °F 100% 30.02 in 7.0 mi SE 6.9 mph - N/A   Clear
5:35 PM 73.6 °F 73.8 °F 100% 30.02 in 10.0 mi SE 5.8 mph - N/A   Clear
5:55 PM 75.0 °F 74.7 °F 99% 30.01 in 10.0 mi SE 3.5 mph - N/A   Clear
6:15 PM 76.1 °F 75.7 °F 99% 30.01 in 10.0 mi SSE 6.9 mph - N/A   Clear
6:35 PM 74.5 °F 74.7 °F 100% 30.00 in 7.0 mi SE 4.6 mph - N/A   Clear
6:55 PM 75.6 °F 75.7 °F 100% 30.00 in 7.0 mi SE 5.8 mph - N/A   Clear
7:15 PM 76.1 °F 76.1 °F 100% 30.00 in 5.0 mi SE 5.8 mph - 0.01 in   Clear
7:35 PM 74.8 °F 74.8 °F 100% 30.00 in 5.0 mi SE 5.8 mph - 0.01 in   Clear
7:55 PM 73.4 °F 73.6 °F 100% 30.00 in 7.0 mi SE 4.6 mph - 0.01 in   Clear
8:15 PM 73.4 °F 73.6 °F 100% 30.00 in 7.0 mi SSE 4.6 mph - N/A   Clear
8:35 PM 72.9 °F 73.0 °F 100% 30.00 in 7.0 mi SSE 6.9 mph - N/A   Clear
8:55 PM - - N/A% 30.01 in 7.0 mi SE 4.6 mph - N/A   Clear
9:15 PM 72.7 °F 72.9 °F 100% 30.01 in 7.0 mi SE 5.8 mph - N/A   Clear
9:35 PM - - N/A% 30.01 in 7.0 mi SSE 5.8 mph - N/A   Clear
9:55 PM 72.0 °F 72.3 °F 100% 30.01 in 7.0 mi SSE 5.8 mph - N/A   Clear
10:15 PM 71.2 °F 71.4 °F 100% 30.01 in 7.0 mi SSE 5.8 mph - N/A   Clear
10:35 PM 70.9 °F 71.1 °F 100% 30.01 in 7.0 mi SSE 5.8 mph - 0.01 in   Clear
10:55 PM 70.9 °F 71.2 °F 100% 30.01 in 10.0 mi SSE 6.9 mph - 0.01 in   Clear
11:15 PM 72.0 °F 72.1 °F 100% 30.00 in 10.0 mi SSE 6.9 mph - N/A   Clear
11:35 PM - - N/A% 30.00 in 10.0 mi SSE 5.8 mph - N/A   Clear
11:55 PM 71.6 °F 71.8 °F 100% 30.00 in 10.0 mi SSE 5.8 mph - N/A   Clear